Tracking 19575 objects as of 19-Feb-2019
HD Live streaming from Space Station
objects crossing your sky now

LEMUR 2 CHANUSIAK

Track LEMUR 2 CHANUSIAK now!
10-day predictions
LEMUR 2 CHANUSIAK is classified as:


NORAD ID: 43697
Int'l Code: 2018-088H
Perigee: 501.4 km
Apogee: 520.5 km
Inclination: 85.0 °
Period: 94.7 minutes
Semi major axis: 6881 km
RCS: Unknown
Launch date: November 11, 2018
Source: United States (US)
Launch site: Rocket Lab Launch Complex (RLLC)
aabbcc
Your satellite tracking list
Your tracking list is empty




NASA's NSSDC Master Catalog

Two Line Element Set (TLE):
1 43697U 18088H   19050.48425795  .00001414  00000-0  62518-4 0  9999
2 43697  85.0378  36.8453 0013900 265.1936  94.7718 15.20665150 15256
Source of the keplerian elements: AFSPC